Вернуться в каталог

STARLINK-36411

АктивенСвязьSSO
NORAD 67608·PAYLOAD·🇺🇸 United States

Запущен Jan 29, 2026 с Vandenberg Space Force Base

Loading…

Ближайшие Пролёты (ближайшие 24 часа)

TLE

СвежийSource: CelesTrak SupGP

Эпоха: Sep 15, 2026, 03:06 UTC

1 67608C 26018V   26258.12965278  .00001694  00000+0  52575-4 0  2582
2 67608  97.2852 321.5956 0000455  80.1750 246.2711 15.33442249    19

Отслеживайте STARLINK-36411 в реальном времени с AllMySat

Download on the App Store